Погода в Ивделе

Погода в Ивделе : погода сейчас, прогноз погоды и архив. Всё, что Вы хотите узнать о погоде в Ивделе!

Хотите узнать прогноз погоды в Ивделе? Тогда Вам сюда: Погода в Ивделе

Поиск расширенной информации на нашем сайте:

Другие новости

Новости СМИ2

Главная страница сайта

Новости сайта

03.07.2017

Напоминаем, что на нашем специализированном сайте Метеоцентр.Азия вы можете получить высокодетализированные автоматические прогнозы погоды по пунктам России, СНГ и мира в авиационном формате (включающие направление и скорость ветра, видимость, явления погоды, количество и форму облачности, нижнюю и верхнюю границу облачности).


Погода в Ивделе - сегодня

Время (UTC), дата Ветер
(°,м/с) 
Видим.   Явления Облачность Т
(°С)
Тd
(°С)
f(%) Тe
(°С)
Pmin
(гПа)
dP
(гПа)
Po
(мм)
O2
(г/м3)
Тmin Tmax R s Состояние
почвы
09 09.12.17 340 (С) 3200 м  слаб. снег  10/0 средняя 
[As op]
-7.1 -9.2 85 -7  1015  0.1  752  312           
12 09.12.17 330 (СЗ) 4000 м  слаб. снег  10/0 средняя 
[As op]
-7.2 -9.3 85 -7  1014.8  -0.1  752  312           
15 09.12.17 330 (СЗ) 10 км  слаб. снег  10/0 средняя 
[Ac As]
-7.2 -9.5 84 -9  1014.8  -0.1  752  312    -7     
18 09.12.17 330 (СЗ) 10 км  слаб. снег  10/0 средняя 
[Ac As]
-7.3 -9.7 83 -9  1015.2  0.4  752  312           
21 09.12.17 340 (С) 10 км  слаб. снег  10/0 средняя 
[Ac As]
-7.1 -9.7 82 -10  1015  -0.2  752  312           
00 10.12.17 340 (С) 10 км  слаб. снег  10/0 средняя 
[Ac As]
-7.8 -10.5 81 -11  1016  0.9  753  313           
03 10.12.17 330 (СЗ) 4000 м  слаб. снег  10/0 средняя 
[Ac As]
-7.9 -10.6 81 -11  1017.5  1.6  754  314  -8.2    0.3  17  равномерный
сухой снег
100% 
06 10.12.17 320 (СЗ) 7000 м  слаб. ливневой снег  10/10 600 м кучево-дожд. 
[Cb cap]
-8 -10.5 82 -10  1018.9  1.4  755  314           
09 10.12.17 320 (СЗ) 25000 м  {ливн. осадки}  4/0 верхняя 
[Ci fib]
-8.9 -12.2 77 -11  1020.3  1.3  756  316           
12 10.12.17 330 (СЗ) 10 км  {ливн. осадки}  5/0 средняя, верхняя 
[Ac trans|Ci fib]
-11.1 -13.2 84 -11  1022.3  1.8  757  319           
15 10.12.17 310 (СЗ) 10 км    6/0 средняя, верхняя 
[Ac trans|Ci fib]
-15.6 -17.4 86 -16  1024.5  759  326    -7.8  0.0     
18 10.12.17 310 (СЗ) 10 км  {ливн. осадки}  8/8 660 м кучево-дожд. 
[Cb cap]
-17.7 -19.8 84 -20  1026.6  760  329           
21 10.12.17 310 (СЗ) 20000 м    9/9 750 м кучево-дожд. 
[Cb cap]
-15.7 -18.1 82 -18  1027.9  1.3  761  327           
00 11.12.17 310 (СЗ) 20000 м  {ливн. осадки}  3/0 верхняя 
[Ci fib]
-16.8 -19.3 81 -17  1029.3  1.3  762  329           
03 11.12.17 310 (СЗ) 20000 м    1/0 верхняя 
[Ci fib]
-18 -20.7 79 -21  1031  1.7  764  331  -18.1    0.0  17  равномерный
сухой снег
100% 
06 11.12.17 310 (СЗ) 20000 м    1/0 верхняя 
[Ci fib]
-19.2 -21.8 80 -19  1032.5  1.4  765  333  -19.9         
09 11.12.17 310 (СЗ) 20000 м    3/0 средняя, верхняя 
[Ac trans|Ci fib]
-16 -19.1 77 -16  1032.7  0.4  765  329           
12 11.12.17 310 (СЗ) 10 км    9/0 средняя, верхняя 
[Ac trans|Ci fib]
-20.3 -22.9 80 -21  1033.9  0.9  766  335           
15 11.12.17 310 (СЗ) 10 км  слаб. снег  10/0 средняя 
[As trans]
-19.6 -22.5 78 -22  1034.7  0.8  766  334    -15.9  0.0     
18 11.12.17 тихо ()   10 км  слаб. снег  10/0 средняя 
[As trans]
-23.5 -26.4 77 -24  1034.7  -0.2  766  340           
21 11.12.17 тихо ()   10 км  слаб. снег  10/0 средняя 
[As trans]
-25 -28.1 75 -25  1034.7  766  342           
00 12.12.17 тихо ()   20000 м  {снег}  ясно 
-26.6 -29.9 74 -27  1034.4  -0.4  766  344           
03 12.12.17 тихо ()   20000 м    ясно 
-27.5 -30.9 73 -28  1034.7  0.2  766  345  -27.6    0.2  17  равномерный
сухой снег
100% 
06 12.12.17 тихо ()   20000 м    3/0 верхняя 
[Ci fib]
-26.9 -30.2 73 -27  1035.1  0.5  766  344  -28.4         
09 12.12.17 140 (ЮВ) 35000 м    1/0 верхняя 
[Ci fib]
-22.4 -26 72 -23  1034.7  -0.2  766  338           
Время (UTC), дата Ветер
(°,м/с) 
Видим.   Явления Облачность Т
(°С)
Тd
(°С)
f(%) Тe
(°С)
Pmin
(гПа)
dP
(гПа)
Po
(мм)
O2
(г/м3)
Тmin Tmax R s Состояние
почвы

Для получения пояснительной информации подведите курсор к названию столбца.

ПОГОДА в Ивделе - архив

Всё, что Вы хотите узнать о погоде в Ивделе - удобно и подробно!

Выберите нужную дату (начиная с 1 января 2015* года) и нажмите кнопку "Найти".
Будут отображены архивные сводки погоды по пункту Ивдель, начиная с указанной даты.


Отображать данные в формате CSV (для использования в таблицах Excel)


Внимание! Наш архив погоды предназначен исключительно для личного некоммерческого использования в познавательных целях. Если Вам необходимы официальные справки о состоянии погоды (для производственных, юридических, коммерческих и т.п. целей), обращайтесь в органы Росгидромета.

*Примечание: данная дата относится к архиву по метеостанциям СССР (Россия, СНГ, Балтия).
Архив по метеостанциям Зарубежной Европы и Азии (кроме Китая) хранится 10 дней, по другим регионам земного шара (Китай, Африка, Америка, Австралия, Океания) - 1 день.

Ивдель - район местоположения метеостанции


Название, широта, долгота, высота метеостанции:
Ивдель 60.7°ш. 60.4°д. 95 м над ур. моря [Российская Федерация]

Дополнительная информация

В oтличие oт бoльшинства пoгoдных сайтoв мы публикуем пoдрoбную метеoинфoрмацию в детальнoм прoфессиoнальнoм фoрмате.

Характеристики температуры и влажнoсти вoздуха измеряются на высoте 2 м в тени вдали oт зданий и деревьев.
Скoрoсть ветра измеряется на высoте 10 м (на урoвне рoста челoвека скoрoсть ветра ниже в 1.5-2 раза). Если метеoстанция нахoдится в гoрoде или в лесу, тo скoрoсть ветра занижена на 2-4 м/с пo сравнению с oткрытым местoм. Скoрoсть ветра над акватoриями крупных рек и oзёр, а также на вершинах хoлмoв на 2-5 м/с выше, чем в oбычных услoвиях.
Атмoсфернoе давление в разных тoчках местнoсти мoжет значительнo oтличаться oт давления на метеoстанции, в зависимoсти oт услoвий рельефа (при пoдъёме на 10 м давление пoнижается примернo на 1 мм рт.ст.).